owner,sensor,date,latitude,longitude,vertical_datum,sea_water_practical_salinity,qcFlag 
DISL,ioos:station:DISL:KATA:1,2015-05-01T00:00:00Z,30.2583,-88.2131,3.914,19.08,1111122 
DISL,ioos:station:DISL:KATA:1,2015-05-01T00:30:00Z,30.2583,-88.2131,3.907,19.15,1111122 
DISL,ioos:station:DISL:KATA:1,2015-05-01T01:00:00Z,30.2583,-88.2131,3.904,19.18,1111122 
DISL,ioos:station:DISL:KATA:1,2015-05-01T01:30:00Z,30.2583,-88.2131,3.89,18.53,1111122 
DISL,ioos:station:DISL:KATA:1,2015-05-01T02:00:00Z,30.2583,-88.2131,3.874,18.46,1111122 
DISL,ioos:station:DISL:KATA:1,2015-05-01T02:30:00Z,30.2583,-88.2131,3.857,18.16,1111122 
DISL,ioos:station:DISL:KATA:1,2015-05-01T03:00:00Z,30.2583,-88.2131,3.854,18.32,1111122 
DISL,ioos:station:DISL:KATA:1,2015-05-01T03:30:00Z,30.2583,-88.2131,3.865,18.23,1111122 
DISL,ioos:station:DISL:KATA:1,2015-05-01T04:00:00Z,30.2583,-88.2131,3.88,18.16,1111122 
DISL,ioos:station:DISL:KATA:1,2015-05-01T04:30:00Z,30.2583,-88.2131,3.895,17.82,1111122 
DISL,ioos:station:DISL:KATA:1,2015-05-01T05:00:00Z,30.2583,-88.2131,3.909,18.81,1111122 
DISL,ioos:station:DISL:KATA:1,2015-05-01T05:30:00Z,30.2583,-88.2131,3.927,18.14,1111122 
DISL,ioos:station:DISL:KATA:1,2015-05-01T06:00:00Z,30.2583,-88.2131,3.918,18.94,1111122 
DISL,ioos:station:DISL:KATA:1,2015-05-01T06:30:00Z,30.2583,-88.2131,3.916,19.07,1111122 
DISL,ioos:station:DISL:KATA:1,2015-05-01T07:00:00Z,30.2583,-88.2131,3.904,18.87,1111122 
DISL,ioos:station:DISL:KATA:1,2015-05-01T07:30:00Z,30.2583,-88.2131,3.894,18.64,1111122 
DISL,ioos:station:DISL:KATA:1,2015-05-01T08:00:00Z,30.2583,-88.2131,3.898,18.5,1111122 
DISL,ioos:station:DISL:KATA:1,2015-05-01T08:30:00Z,30.2583,-88.2131,3.896,18.64,1111122 
DISL,ioos:station:DISL:KATA:1,2015-05-01T09:00:00Z,30.2583,-88.2131,3.902,19.28,1111122 
DISL,ioos:station:DISL:KATA:1,2015-05-01T09:30:00Z,30.2583,-88.2131,3.91,19.45,1111122 
DISL,ioos:station:DISL:KATA:1,2015-05-01T10:00:00Z,30.2583,-88.2131,3.919,19.53,1111122 
DISL,ioos:station:DISL:KATA:1,2015-05-01T10:30:00Z,30.2583,-88.2131,3.935,19.53,1111122 
DISL,ioos:station:DISL:KATA:1,2015-05-01T11:00:00Z,30.2583,-88.2131,3.95,19.68,1111122 
DISL,ioos:station:DISL:KATA:1,2015-05-01T11:30:00Z,30.2583,-88.2131,3.98,19.71,1111122 
DISL,ioos:station:DISL:KATA:1,2015-05-01T12:00:00Z,30.2583,-88.2131,4.012,19.55,1111122 
DISL,ioos:station:DISL:KATA:1,2015-05-01T12:30:00Z,30.2583,-88.2131,4.022,19.71,1111122 
DISL,ioos:station:DISL:KATA:1,2015-05-01T13:00:00Z,30.2583,-88.2131,4.013,19.66,1111122 
DISL,ioos:station:DISL:KATA:1,2015-05-01T13:30:00Z,30.2583,-88.2131,3.998,19.61,1111122 
DISL,ioos:station:DISL:KATA:1,2015-05-01T14:00:00Z,30.2583,-88.2131,3.987,19.05,1111122 
DISL,ioos:station:DISL:KATA:1,2015-05-01T14:30:00Z,30.2583,-88.2131,3.976,18.37,1111122 
DISL,ioos:station:DISL:KATA:1,2015-05-01T15:00:00Z,30.2583,-88.2131,3.963,18.8,1111122 
DISL,ioos:station:DISL:KATA:1,2015-05-01T15:30:00Z,30.2583,-88.2131,3.957,18.58,1111122 
DISL,ioos:station:DISL:KATA:1,2015-05-01T16:00:00Z,30.2583,-88.2131,3.955,19.17,1111122 
DISL,ioos:station:DISL:KATA:1,2015-05-01T16:30:00Z,30.2583,-88.2131,3.951,19.44,1111122 
DISL,ioos:station:DISL:KATA:1,2015-05-01T17:00:00Z,30.2583,-88.2131,3.956,19.53,1111122 
DISL,ioos:station:DISL:KATA:1,2015-05-01T17:30:00Z,30.2583,-88.2131,3.962,19.59,1111122 
DISL,ioos:station:DISL:KATA:1,2015-05-01T18:00:00Z,30.2583,-88.2131,3.958,19.13,1111122 
DISL,ioos:station:DISL:KATA:1,2015-05-01T18:30:00Z,30.2583,-88.2131,3.952,18.6,1111122 
DISL,ioos:station:DISL:KATA:1,2015-05-01T19:00:00Z,30.2583,-88.2131,3.934,19.23,1111122 
DISL,ioos:station:DISL:KATA:1,2015-05-01T19:30:00Z,30.2583,-88.2131,3.904,19.23,1111122 
DISL,ioos:station:DISL:KATA:1,2015-05-01T20:00:00Z,30.2583,-88.2131,3.873,18.93,1111122 
DISL,ioos:station:DISL:KATA:1,2015-05-01T20:30:00Z,30.2583,-88.2131,3.85,19.21,1111122 
DISL,ioos:station:DISL:KATA:1,2015-05-01T21:00:00Z,30.2583,-88.2131,3.833,18.99,1111122 
DISL,ioos:station:DISL:KATA:1,2015-05-01T21:30:00Z,30.2583,-88.2131,3.814,19.41,1111122 
DISL,ioos:station:DISL:KATA:1,2015-05-01T22:00:00Z,30.2583,-88.2131,3.815,18.96,1111122 
DISL,ioos:station:DISL:KATA:1,2015-05-01T22:30:00Z,30.2583,-88.2131,3.814,19.05,1111122 
DISL,ioos:station:DISL:KATA:1,2015-05-01T23:00:00Z,30.2583,-88.2131,3.813,18.96,1111122 
DISL,ioos:station:DISL:KATA:1,2015-05-01T23:30:00Z,30.2583,-88.2131,3.818,18.73,1111122 
DISL,ioos:station:DISL:KATA:1,2015-05-02T00:00:00Z,30.2583,-88.2131,3.842,17.94,1111122 
DISL,ioos:station:DISL:KATA:1,2015-05-02T00:30:00Z,30.2583,-88.2131,3.844,18.15,1111122 
DISL,ioos:station:DISL:KATA:1,2015-05-02T01:00:00Z,30.2583,-88.2131,3.854,17.63,1111122 
DISL,ioos:station:DISL:KATA:1,2015-05-02T01:30:00Z,30.2583,-88.2131,3.854,17.67,1111122 
DISL,ioos:station:DISL:KATA:1,2015-05-02T02:00:00Z,30.2583,-88.2131,3.841,17.64,1111122 
DISL,ioos:station:DISL:KATA:1,2015-05-02T02:30:00Z,30.2583,-88.2131,3.839,17.52,1111122 
DISL,ioos:station:DISL:KATA:1,2015-05-02T03:00:00Z,30.2583,-88.2131,3.844,17.44,1111122 
DISL,ioos:station:DISL:KATA:1,2015-05-02T03:30:00Z,30.2583,-88.2131,3.841,16.98,1111122 
DISL,ioos:station:DISL:KATA:1,2015-05-02T04:00:00Z,30.2583,-88.2131,3.838,16.76,1111122 
DISL,ioos:station:DISL:KATA:1,2015-05-02T04:30:00Z,30.2583,-88.2131,3.823,17.22,1111122 
DISL,ioos:station:DISL:KATA:1,2015-05-02T05:00:00Z,30.2583,-88.2131,3.822,17.03,1111122 
DISL,ioos:station:DISL:KATA:1,2015-05-02T05:30:00Z,30.2583,-88.2131,3.824,16.96,1111122 
DISL,ioos:station:DISL:KATA:1,2015-05-02T06:00:00Z,30.2583,-88.2131,3.839,17.29,1111122 
DISL,ioos:station:DISL:KATA:1,2015-05-02T06:30:00Z,30.2583,-88.2131,3.852,16.99,1111122 
DISL,ioos:station:DISL:KATA:1,2015-05-02T07:00:00Z,30.2583,-88.2131,3.861,16.97,1111122 
DISL,ioos:station:DISL:KATA:1,2015-05-02T07:30:00Z,30.2583,-88.2131,3.874,17.16,1111122 
DISL,ioos:station:DISL:KATA:1,2015-05-02T08:00:00Z,30.2583,-88.2131,3.886,16.83,1111122 
DISL,ioos:station:DISL:KATA:1,2015-05-02T08:30:00Z,30.2583,-88.2131,3.894,16.76,1111122 
DISL,ioos:station:DISL:KATA:1,2015-05-02T09:00:00Z,30.2583,-88.2131,3.912,17.03,1111122 
DISL,ioos:station:DISL:KATA:1,2015-05-02T09:30:00Z,30.2583,-88.2131,3.935,16.65,1111122 
DISL,ioos:station:DISL:KATA:1,2015-05-02T10:00:00Z,30.2583,-88.2131,3.968,16.54,1111122 
DISL,ioos:station:DISL:KATA:1,2015-05-02T10:30:00Z,30.2583,-88.2131,4.002,16.5,1111122 
DISL,ioos:station:DISL:KATA:1,2015-05-02T11:00:00Z,30.2583,-88.2131,4.034,16.42,1111122 
DISL,ioos:station:DISL:KATA:1,2015-05-02T11:30:00Z,30.2583,-88.2131,4.059,16.66,1111122 
DISL,ioos:station:DISL:KATA:1,2015-05-02T12:00:00Z,30.2583,-88.2131,4.077,16.91,1111122 
DISL,ioos:station:DISL:KATA:1,2015-05-02T12:30:00Z,30.2583,-88.2131,4.088,17.14,1111122 
DISL,ioos:station:DISL:KATA:1,2015-05-02T13:00:00Z,30.2583,-88.2131,4.103,16.5,1111122 
DISL,ioos:station:DISL:KATA:1,2015-05-02T13:30:00Z,30.2583,-88.2131,4.111,16.77,1111122 
DISL,ioos:station:DISL:KATA:1,2015-05-02T14:00:00Z,30.2583,-88.2131,4.117,16.73,1111122 
DISL,ioos:station:DISL:KATA:1,2015-05-02T14:30:00Z,30.2583,-88.2131,4.119,17.04,1111122 
DISL,ioos:station:DISL:KATA:1,2015-05-02T15:00:00Z,30.2583,-88.2131,4.114,17.58,1111122 
DISL,ioos:station:DISL:KATA:1,2015-05-02T15:30:00Z,30.2583,-88.2131,4.107,17.6,1111122 
DISL,ioos:station:DISL:KATA:1,2015-05-02T16:00:00Z,30.2583,-88.2131,4.096,17.57,1111122 
DISL,ioos:station:DISL:KATA:1,2015-05-02T16:30:00Z,30.2583,-88.2131,4.08,17.85,1111122 
DISL,ioos:station:DISL:KATA:1,2015-05-02T17:00:00Z,30.2583,-88.2131,4.066,16.97,1111122 
DISL,ioos:station:DISL:KATA:1,2015-05-02T17:30:00Z,30.2583,-88.2131,4.044,17.27,1111122 
DISL,ioos:station:DISL:KATA:1,2015-05-02T18:00:00Z,30.2583,-88.2131,4.017,17.28,1111122 
DISL,ioos:station:DISL:KATA:1,2015-05-02T18:30:00Z,30.2583,-88.2131,3.981,18.04,1111122 
DISL,ioos:station:DISL:KATA:1,2015-05-02T19:00:00Z,30.2583,-88.2131,3.943,18.05,1111122 
DISL,ioos:station:DISL:KATA:1,2015-05-02T19:30:00Z,30.2583,-88.2131,3.907,17.61,1111122 
DISL,ioos:station:DISL:KATA:1,2015-05-02T20:00:00Z,30.2583,-88.2131,3.871,18.05,1111122 
DISL,ioos:station:DISL:KATA:1,2015-05-02T20:30:00Z,30.2583,-88.2131,3.833,18.01,1111122 
DISL,ioos:station:DISL:KATA:1,2015-05-02T21:00:00Z,30.2583,-88.2131,3.801,17.7,1111122 
DISL,ioos:station:DISL:KATA:1,2015-05-02T21:30:00Z,30.2583,-88.2131,3.774,17.93,1111122 
DISL,ioos:station:DISL:KATA:1,2015-05-02T22:00:00Z,30.2583,-88.2131,3.753,17.64,1111122 
DISL,ioos:station:DISL:KATA:1,2015-05-02T22:30:00Z,30.2583,-88.2131,3.743,17.89,1111122 
DISL,ioos:station:DISL:KATA:1,2015-05-02T23:00:00Z,30.2583,-88.2131,3.743,17.47,1111122 
DISL,ioos:station:DISL:KATA:1,2015-05-02T23:30:00Z,30.2583,-88.2131,3.754,17.02,1111122 
DISL,ioos:station:DISL:KATA:1,2015-05-03T00:00:00Z,30.2583,-88.2131,3.763,17.55,1111122 
DISL,ioos:station:DISL:KATA:1,2015-05-03T00:30:00Z,30.2583,-88.2131,3.785,17.27,1111122 
DISL,ioos:station:DISL:KATA:1,2015-05-03T01:00:00Z,30.2583,-88.2131,3.807,17.7,1111122 
DISL,ioos:station:DISL:KATA:1,2015-05-03T01:30:00Z,30.2583,-88.2131,3.824,17.31,1111122 
DISL,ioos:station:DISL:KATA:1,2015-05-03T02:00:00Z,30.2583,-88.2131,3.833,17.29,1111122 
DISL,ioos:station:DISL:KATA:1,2015-05-03T02:30:00Z,30.2583,-88.2131,3.839,17.63,1111122 
DISL,ioos:station:DISL:KATA:1,2015-05-03T03:00:00Z,30.2583,-88.2131,3.85,17.39,1111122 
DISL,ioos:station:DISL:KATA:1,2015-05-03T03:30:00Z,30.2583,-88.2131,3.86,18.01,1111122 
DISL,ioos:station:DISL:KATA:1,2015-05-03T04:00:00Z,30.2583,-88.2131,3.881,17.86,1111122 
DISL,ioos:station:DISL:KATA:1,2015-05-03T04:30:00Z,30.2583,-88.2131,3.903,17.88,1111122 
DISL,ioos:station:DISL:KATA:1,2015-05-03T05:00:00Z,30.2583,-88.2131,3.923,17.93,1111122 
DISL,ioos:station:DISL:KATA:1,2015-05-03T05:30:00Z,30.2583,-88.2131,3.945,17.94,1111122 
DISL,ioos:station:DISL:KATA:1,2015-05-03T06:00:00Z,30.2583,-88.2131,3.968,17.64,1111122 
DISL,ioos:station:DISL:KATA:1,2015-05-03T06:30:00Z,30.2583,-88.2131,3.979,17.97,1111122 
DISL,ioos:station:DISL:KATA:1,2015-05-03T07:00:00Z,30.2583,-88.2131,3.99,17.64,1111122 
DISL,ioos:station:DISL:KATA:1,2015-05-03T07:30:00Z,30.2583,-88.2131,3.995,17.67,1111122 
DISL,ioos:station:DISL:KATA:1,2015-05-03T08:00:00Z,30.2583,-88.2131,3.996,18.38,1111122 
DISL,ioos:station:DISL:KATA:1,2015-05-03T08:30:00Z,30.2583,-88.2131,3.995,18.69,1111122 
DISL,ioos:station:DISL:KATA:1,2015-05-03T09:00:00Z,30.2583,-88.2131,4.006,18.38,1111122 
DISL,ioos:station:DISL:KATA:1,2015-05-03T09:30:00Z,30.2583,-88.2131,4.021,18.0,1111122 
DISL,ioos:station:DISL:KATA:1,2015-05-03T10:00:00Z,30.2583,-88.2131,4.039,17.72,1111122 
DISL,ioos:station:DISL:KATA:1,2015-05-03T10:30:00Z,30.2583,-88.2131,4.063,18.03,1111122 
DISL,ioos:station:DISL:KATA:1,2015-05-03T11:00:00Z,30.2583,-88.2131,4.087,17.68,1111122 
DISL,ioos:station:DISL:KATA:1,2015-05-03T11:30:00Z,30.2583,-88.2131,4.104,18.19,1111122 
DISL,ioos:station:DISL:KATA:1,2015-05-03T12:00:00Z,30.2583,-88.2131,4.126,18.15,1111122 
DISL,ioos:station:DISL:KATA:1,2015-05-03T12:30:00Z,30.2583,-88.2131,4.143,18.77,1111122 
DISL,ioos:station:DISL:KATA:1,2015-05-03T13:00:00Z,30.2583,-88.2131,4.162,18.63,1111122 
DISL,ioos:station:DISL:KATA:1,2015-05-03T13:30:00Z,30.2583,-88.2131,4.175,18.69,1111122 
DISL,ioos:station:DISL:KATA:1,2015-05-03T14:00:00Z,30.2583,-88.2131,4.182,18.9,1111122 
DISL,ioos:station:DISL:KATA:1,2015-05-03T14:30:00Z,30.2583,-88.2131,4.182,19.18,1111122 
DISL,ioos:station:DISL:KATA:1,2015-05-03T15:00:00Z,30.2583,-88.2131,4.179,18.57,1111122 
DISL,ioos:station:DISL:KATA:1,2015-05-03T15:30:00Z,30.2583,-88.2131,4.169,19.07,1111122 
DISL,ioos:station:DISL:KATA:1,2015-05-03T16:00:00Z,30.2583,-88.2131,4.155,18.7,1111122 
DISL,ioos:station:DISL:KATA:1,2015-05-03T16:30:00Z,30.2583,-88.2131,4.136,18.76,1111122 
DISL,ioos:station:DISL:KATA:1,2015-05-03T17:00:00Z,30.2583,-88.2131,4.122,18.92,1111122 
DISL,ioos:station:DISL:KATA:1,2015-05-03T17:30:00Z,30.2583,-88.2131,4.107,18.97,1111122 
DISL,ioos:station:DISL:KATA:1,2015-05-03T18:00:00Z,30.2583,-88.2131,4.092,18.78,1111122 
DISL,ioos:station:DISL:KATA:1,2015-05-03T18:30:00Z,30.2583,-88.2131,4.067,19.21,1111122 
DISL,ioos:station:DISL:KATA:1,2015-05-03T19:00:00Z,30.2583,-88.2131,4.043,17.75,1111122 
DISL,ioos:station:DISL:KATA:1,2015-05-03T19:30:00Z,30.2583,-88.2131,4.007,18.99,1111122 
DISL,ioos:station:DISL:KATA:1,2015-05-03T20:00:00Z,30.2583,-88.2131,3.966,18.67,1111122 
DISL,ioos:station:DISL:KATA:1,2015-05-03T20:30:00Z,30.2583,-88.2131,3.922,19.19,1111122 
DISL,ioos:station:DISL:KATA:1,2015-05-03T21:00:00Z,30.2583,-88.2131,3.872,19.21,1111122 
DISL,ioos:station:DISL:KATA:1,2015-05-03T21:30:00Z,30.2583,-88.2131,3.827,19.01,1111122 
DISL,ioos:station:DISL:KATA:1,2015-05-03T22:00:00Z,30.2583,-88.2131,3.793,18.75,1111122 
DISL,ioos:station:DISL:KATA:1,2015-05-03T22:30:00Z,30.2583,-88.2131,3.761,18.86,1111122 
DISL,ioos:station:DISL:KATA:1,2015-05-03T23:00:00Z,30.2583,-88.2131,3.742,17.81,1111122 
DISL,ioos:station:DISL:KATA:1,2015-05-03T23:30:00Z,30.2583,-88.2131,3.738,18.81,1111122 
DISL,ioos:station:DISL:KATA:1,2015-05-04T00:00:00Z,30.2583,-88.2131,3.738,18.78,1111122 
DISL,ioos:station:DISL:KATA:1,2015-05-04T00:30:00Z,30.2583,-88.2131,3.754,18.74,1111122 
DISL,ioos:station:DISL:KATA:1,2015-05-04T01:00:00Z,30.2583,-88.2131,3.771,18.8,1111122 
DISL,ioos:station:DISL:KATA:1,2015-05-04T01:30:00Z,30.2583,-88.2131,3.795,19.04,1111122 
DISL,ioos:station:DISL:KATA:1,2015-05-04T02:00:00Z,30.2583,-88.2131,3.819,17.44,1111122 
DISL,ioos:station:DISL:KATA:1,2015-05-04T02:30:00Z,30.2583,-88.2131,3.834,18.31,1111122 
DISL,ioos:station:DISL:KATA:1,2015-05-04T03:00:00Z,30.2583,-88.2131,3.846,19.55,1111122 
DISL,ioos:station:DISL:KATA:1,2015-05-04T03:30:00Z,30.2583,-88.2131,3.866,19.28,1111122 
DISL,ioos:station:DISL:KATA:1,2015-05-04T04:00:00Z,30.2583,-88.2131,3.879,19.51,1111122 
DISL,ioos:station:DISL:KATA:1,2015-05-04T04:30:00Z,30.2583,-88.2131,3.893,19.76,1111122 
DISL,ioos:station:DISL:KATA:1,2015-05-04T05:00:00Z,30.2583,-88.2131,3.927,19.6,1111122 
DISL,ioos:station:DISL:KATA:1,2015-05-04T05:30:00Z,30.2583,-88.2131,3.964,19.52,1111122 
DISL,ioos:station:DISL:KATA:1,2015-05-04T06:00:00Z,30.2583,-88.2131,4.002,19.95,1111122 
DISL,ioos:station:DISL:KATA:1,2015-05-04T06:30:00Z,30.2583,-88.2131,4.023,19.81,1111122 
DISL,ioos:station:DISL:KATA:1,2015-05-04T07:00:00Z,30.2583,-88.2131,4.033,19.23,1111122 
DISL,ioos:station:DISL:KATA:1,2015-05-04T07:30:00Z,30.2583,-88.2131,4.052,19.35,1111122 
DISL,ioos:station:DISL:KATA:1,2015-05-04T08:00:00Z,30.2583,-88.2131,4.068,19.52,1111122 
DISL,ioos:station:DISL:KATA:1,2015-05-04T08:30:00Z,30.2583,-88.2131,4.087,19.36,1111122 
DISL,ioos:station:DISL:KATA:1,2015-05-04T09:00:00Z,30.2583,-88.2131,4.101,19.64,1111122 
DISL,ioos:station:DISL:KATA:1,2015-05-04T09:30:00Z,30.2583,-88.2131,4.109,20.05,1111122 
DISL,ioos:station:DISL:KATA:1,2015-05-04T10:00:00Z,30.2583,-88.2131,4.121,19.69,1111122 
DISL,ioos:station:DISL:KATA:1,2015-05-04T10:30:00Z,30.2583,-88.2131,4.134,20.06,1111122 
DISL,ioos:station:DISL:KATA:1,2015-05-04T11:00:00Z,30.2583,-88.2131,4.152,20.51,1111122 
DISL,ioos:station:DISL:KATA:1,2015-05-04T11:30:00Z,30.2583,-88.2131,4.159,20.37,1111122 
DISL,ioos:station:DISL:KATA:1,2015-05-04T12:00:00Z,30.2583,-88.2131,4.179,20.69,1111122 
DISL,ioos:station:DISL:KATA:1,2015-05-04T12:30:00Z,30.2583,-88.2131,4.197,20.79,1111122 
DISL,ioos:station:DISL:KATA:1,2015-05-04T13:00:00Z,30.2583,-88.2131,4.227,20.61,1111122 
DISL,ioos:station:DISL:KATA:1,2015-05-04T13:30:00Z,30.2583,-88.2131,4.25,20.0,1111122 
DISL,ioos:station:DISL:KATA:1,2015-05-04T14:00:00Z,30.2583,-88.2131,4.263,20.63,1111122 
DISL,ioos:station:DISL:KATA:1,2015-05-04T14:30:00Z,30.2583,-88.2131,4.278,20.34,1111122 
DISL,ioos:station:DISL:KATA:1,2015-05-04T15:00:00Z,30.2583,-88.2131,4.268,20.38,1111122 
DISL,ioos:station:DISL:KATA:1,2015-05-04T15:30:00Z,30.2583,-88.2131,4.252,20.75,1111122 
DISL,ioos:station:DISL:KATA:1,2015-05-04T16:00:00Z,30.2583,-88.2131,4.235,20.66,1111122 
DISL,ioos:station:DISL:KATA:1,2015-05-04T16:30:00Z,30.2583,-88.2131,4.221,20.59,1111122 
DISL,ioos:station:DISL:KATA:1,2015-05-04T17:00:00Z,30.2583,-88.2131,4.215,20.15,1111122 
DISL,ioos:station:DISL:KATA:1,2015-05-04T17:30:00Z,30.2583,-88.2131,4.199,19.94,1111122 
DISL,ioos:station:DISL:KATA:1,2015-05-04T18:00:00Z,30.2583,-88.2131,4.183,20.04,1111122 
DISL,ioos:station:DISL:KATA:1,2015-05-04T18:30:00Z,30.2583,-88.2131,4.175,20.13,1111122 
DISL,ioos:station:DISL:KATA:1,2015-05-04T19:00:00Z,30.2583,-88.2131,4.162,20.2,1111122 
DISL,ioos:station:DISL:KATA:1,2015-05-04T19:30:00Z,30.2583,-88.2131,4.138,20.51,1111122 
DISL,ioos:station:DISL:KATA:1,2015-05-04T20:00:00Z,30.2583,-88.2131,4.108,20.56,1111122 
DISL,ioos:station:DISL:KATA:1,2015-05-04T20:30:00Z,30.2583,-88.2131,4.059,20.57,1111122 
DISL,ioos:station:DISL:KATA:1,2015-05-04T21:00:00Z,30.2583,-88.2131,4.003,20.44,1111122 
DISL,ioos:station:DISL:KATA:1,2015-05-04T21:30:00Z,30.2583,-88.2131,3.952,20.44,1111122 
DISL,ioos:station:DISL:KATA:1,2015-05-04T22:00:00Z,30.2583,-88.2131,3.905,20.39,1111122 
DISL,ioos:station:DISL:KATA:1,2015-05-04T22:30:00Z,30.2583,-88.2131,3.867,20.33,1111122 
DISL,ioos:station:DISL:KATA:1,2015-05-04T23:00:00Z,30.2583,-88.2131,3.838,20.37,1111122 
DISL,ioos:station:DISL:KATA:1,2015-05-04T23:30:00Z,30.2583,-88.2131,3.822,19.29,1111122 
DISL,ioos:station:DISL:KATA:1,2015-05-05T00:00:00Z,30.2583,-88.2131,3.815,19.98,1111122 
DISL,ioos:station:DISL:KATA:1,2015-05-05T00:30:00Z,30.2583,-88.2131,3.831,19.32,1111122 
DISL,ioos:station:DISL:KATA:1,2015-05-05T01:00:00Z,30.2583,-88.2131,3.845,19.19,1111122 
DISL,ioos:station:DISL:KATA:1,2015-05-05T01:30:00Z,30.2583,-88.2131,3.859,19.1,1111122 
DISL,ioos:station:DISL:KATA:1,2015-05-05T02:00:00Z,30.2583,-88.2131,3.875,19.47,1111122 
DISL,ioos:station:DISL:KATA:1,2015-05-05T02:30:00Z,30.2583,-88.2131,3.888,19.29,1111122 
DISL,ioos:station:DISL:KATA:1,2015-05-05T03:00:00Z,30.2583,-88.2131,3.902,19.61,1111122 
DISL,ioos:station:DISL:KATA:1,2015-05-05T03:30:00Z,30.2583,-88.2131,3.9,19.86,1111122 
DISL,ioos:station:DISL:KATA:1,2015-05-05T04:00:00Z,30.2583,-88.2131,3.901,19.35,1111122 
DISL,ioos:station:DISL:KATA:1,2015-05-05T04:30:00Z,30.2583,-88.2131,3.899,19.64,1111122 
DISL,ioos:station:DISL:KATA:1,2015-05-05T05:00:00Z,30.2583,-88.2131,3.9,19.79,1111122 
DISL,ioos:station:DISL:KATA:1,2015-05-05T05:30:00Z,30.2583,-88.2131,3.916,19.54,1111122 
DISL,ioos:station:DISL:KATA:1,2015-05-05T06:00:00Z,30.2583,-88.2131,3.949,19.57,1111122 
DISL,ioos:station:DISL:KATA:1,2015-05-05T06:30:00Z,30.2583,-88.2131,3.971,19.51,1111122 
DISL,ioos:station:DISL:KATA:1,2015-05-05T07:00:00Z,30.2583,-88.2131,4.0,19.41,1111122 
DISL,ioos:station:DISL:KATA:1,2015-05-05T07:30:00Z,30.2583,-88.2131,4.019,19.62,1111122 
DISL,ioos:station:DISL:KATA:1,2015-05-05T08:00:00Z,30.2583,-88.2131,4.036,19.84,1111122 
DISL,ioos:station:DISL:KATA:1,2015-05-05T08:30:00Z,30.2583,-88.2131,4.056,19.97,1111122 
DISL,ioos:station:DISL:KATA:1,2015-05-05T09:00:00Z,30.2583,-88.2131,4.076,19.43,1111122 
DISL,ioos:station:DISL:KATA:1,2015-05-05T09:30:00Z,30.2583,-88.2131,4.09,19.42,1111122 
DISL,ioos:station:DISL:KATA:1,2015-05-05T10:00:00Z,30.2583,-88.2131,4.096,19.47,1111122 
DISL,ioos:station:DISL:KATA:1,2015-05-05T10:30:00Z,30.2583,-88.2131,4.104,19.83,1111122 
DISL,ioos:station:DISL:KATA:1,2015-05-05T11:00:00Z,30.2583,-88.2131,4.113,19.4,1111122 
DISL,ioos:station:DISL:KATA:1,2015-05-05T11:30:00Z,30.2583,-88.2131,4.125,19.94,1111122 
DISL,ioos:station:DISL:KATA:1,2015-05-05T12:00:00Z,30.2583,-88.2131,4.155,19.81,1111122 
DISL,ioos:station:DISL:KATA:1,2015-05-05T12:30:00Z,30.2583,-88.2131,4.172,19.53,1111122 
DISL,ioos:station:DISL:KATA:1,2015-05-05T13:00:00Z,30.2583,-88.2131,4.199,19.49,1111122 
DISL,ioos:station:DISL:KATA:1,2015-05-05T13:30:00Z,30.2583,-88.2131,4.232,19.74,1111122 
DISL,ioos:station:DISL:KATA:1,2015-05-05T14:00:00Z,30.2583,-88.2131,4.26,20.69,1111122 
DISL,ioos:station:DISL:KATA:1,2015-05-05T14:30:00Z,30.2583,-88.2131,4.283,20.46,1111122 
DISL,ioos:station:DISL:KATA:1,2015-05-05T15:00:00Z,30.2583,-88.2131,4.301,20.53,1111122 
DISL,ioos:station:DISL:KATA:1,2015-05-05T15:30:00Z,30.2583,-88.2131,4.323,20.37,1111122 
DISL,ioos:station:DISL:KATA:1,2015-05-05T16:00:00Z,30.2583,-88.2131,4.332,19.97,1111122 
DISL,ioos:station:DISL:KATA:1,2015-05-05T16:30:00Z,30.2583,-88.2131,4.331,20.17,1111122 
DISL,ioos:station:DISL:KATA:1,2015-05-05T17:00:00Z,30.2583,-88.2131,4.337,20.2,1111122 
DISL,ioos:station:DISL:KATA:1,2015-05-05T17:30:00Z,30.2583,-88.2131,4.332,20.07,1111122 
DISL,ioos:station:DISL:KATA:1,2015-05-05T18:00:00Z,30.2583,-88.2131,4.329,20.68,1111122 
DISL,ioos:station:DISL:KATA:1,2015-05-05T18:30:00Z,30.2583,-88.2131,4.317,20.32,1111122 
DISL,ioos:station:DISL:KATA:1,2015-05-05T19:00:00Z,30.2583,-88.2131,4.294,20.92,1111122 
DISL,ioos:station:DISL:KATA:1,2015-05-05T19:30:00Z,30.2583,-88.2131,4.262,20.38,1111122 
DISL,ioos:station:DISL:KATA:1,2015-05-05T20:00:00Z,30.2583,-88.2131,4.219,21.06,1111122 
DISL,ioos:station:DISL:KATA:1,2015-05-05T20:30:00Z,30.2583,-88.2131,4.173,21.11,1111122 
DISL,ioos:station:DISL:KATA:1,2015-05-05T21:00:00Z,30.2583,-88.2131,4.129,20.75,1111122 
DISL,ioos:station:DISL:KATA:1,2015-05-05T21:30:00Z,30.2583,-88.2131,4.077,20.51,1111122 
DISL,ioos:station:DISL:KATA:1,2015-05-05T22:00:00Z,30.2583,-88.2131,4.028,20.23,1111122 
DISL,ioos:station:DISL:KATA:1,2015-05-05T22:30:00Z,30.2583,-88.2131,3.985,19.19,1111122 
DISL,ioos:station:DISL:KATA:1,2015-05-05T23:00:00Z,30.2583,-88.2131,3.946,20.49,1111122 
DISL,ioos:station:DISL:KATA:1,2015-05-05T23:30:00Z,30.2583,-88.2131,3.921,19.48,1111122 
DISL,ioos:station:DISL:KATA:1,2015-05-06T00:00:00Z,30.2583,-88.2131,3.899,19.56,1111122 
DISL,ioos:station:DISL:KATA:1,2015-05-06T00:30:00Z,30.2583,-88.2131,3.888,19.65,1111122 
DISL,ioos:station:DISL:KATA:1,2015-05-06T01:00:00Z,30.2583,-88.2131,3.881,20.25,1111122 
DISL,ioos:station:DISL:KATA:1,2015-05-06T01:30:00Z,30.2583,-88.2131,3.88,20.74,1111122 
DISL,ioos:station:DISL:KATA:1,2015-05-06T02:00:00Z,30.2583,-88.2131,3.895,20.27,1111122 
DISL,ioos:station:DISL:KATA:1,2015-05-06T02:30:00Z,30.2583,-88.2131,3.902,20.16,1111122 
DISL,ioos:station:DISL:KATA:1,2015-05-06T03:00:00Z,30.2583,-88.2131,3.915,20.14,1111122 
DISL,ioos:station:DISL:KATA:1,2015-05-06T03:30:00Z,30.2583,-88.2131,3.919,20.98,1111122 
DISL,ioos:station:DISL:KATA:1,2015-05-06T04:00:00Z,30.2583,-88.2131,3.922,20.05,1111122 
DISL,ioos:station:DISL:KATA:1,2015-05-06T04:30:00Z,30.2583,-88.2131,3.919,20.44,1111122 
DISL,ioos:station:DISL:KATA:1,2015-05-06T05:00:00Z,30.2583,-88.2131,3.92,20.97,1111122 
DISL,ioos:station:DISL:KATA:1,2015-05-06T05:30:00Z,30.2583,-88.2131,3.929,20.4,1111122 
DISL,ioos:station:DISL:KATA:1,2015-05-06T06:00:00Z,30.2583,-88.2131,3.945,20.23,1111122 
DISL,ioos:station:DISL:KATA:1,2015-05-06T06:30:00Z,30.2583,-88.2131,3.967,20.34,1111122 
DISL,ioos:station:DISL:KATA:1,2015-05-06T07:00:00Z,30.2583,-88.2131,3.985,20.4,1111122 
DISL,ioos:station:DISL:KATA:1,2015-05-06T07:30:00Z,30.2583,-88.2131,4.006,20.34,1111122 
DISL,ioos:station:DISL:KATA:1,2015-05-06T08:00:00Z,30.2583,-88.2131,4.032,20.2,1111122 
DISL,ioos:station:DISL:KATA:1,2015-05-06T08:30:00Z,30.2583,-88.2131,4.06,20.51,1111122 
DISL,ioos:station:DISL:KATA:1,2015-05-06T09:00:00Z,30.2583,-88.2131,4.074,20.28,1111122 
DISL,ioos:station:DISL:KATA:1,2015-05-06T09:30:00Z,30.2583,-88.2131,4.091,19.8,1111122 
DISL,ioos:station:DISL:KATA:1,2015-05-06T10:00:00Z,30.2583,-88.2131,4.101,19.85,1111122 
DISL,ioos:station:DISL:KATA:1,2015-05-06T10:30:00Z,30.2583,-88.2131,4.122,19.48,1111122 
DISL,ioos:station:DISL:KATA:1,2015-05-06T11:00:00Z,30.2583,-88.2131,4.137,19.87,1111122 
DISL,ioos:station:DISL:KATA:1,2015-05-06T11:30:00Z,30.2583,-88.2131,4.161,19.85,1111122 
DISL,ioos:station:DISL:KATA:1,2015-05-06T12:00:00Z,30.2583,-88.2131,4.184,19.15,1111122 
DISL,ioos:station:DISL:KATA:1,2015-05-06T12:30:00Z,30.2583,-88.2131,4.209,19.95,1111122 
DISL,ioos:station:DISL:KATA:1,2015-05-06T13:00:00Z,30.2583,-88.2131,4.238,18.98,1111122 
DISL,ioos:station:DISL:KATA:1,2015-05-06T13:30:00Z,30.2583,-88.2131,4.268,19.02,1111122 
DISL,ioos:station:DISL:KATA:1,2015-05-06T14:00:00Z,30.2583,-88.2131,4.294,19.02,1111122 